[[{"header":{"parameterUnit":"m.s-1","parameterCategory":1,"la1":30.2991,"la2":30.254,"lo1":-89.0895,"lo2":-89.0444,"dy":0.0017,"dx":0.0017,"nx":28,"ny":28,"refTime":"2025-12-27T09:00:00:Z","depth":0,"parameterNumber":2,"parameterNumberName":"U-component_of_WINDS"},"data":[0,0,0,0,0,0,0,0,0,0,0,0,0,0,0,0,0,0,0,0,0,0,0,0,0,0,0,0,0,0,0,0,0,0,0,0,0,0,0,0,0,0,0,0,0,0,0,0,0,0,0,0,0,0,0,0,0,0,-2.1608,-2.1607,0,-2.1527,-2.1526,-2.1525,-2.1455,-2.1454,-2.1454,-2.1453,-2.1369,-2.1368,-2.1366,0,0,0,0,0,0,0,0,0,0,0,0,0,-2.1704,-2.1702,-2.1608,-2.1607,-2.1606,-2.1527,-2.1526,-2.1525,-2.1455,-2.1454,-2.1453,-2.1452,-2.137,-2.1368,-2.1366,0,0,0,0,0,0,0,0,0,0,0,0,0,-2.1646,-2.1702,-2.1608,-2.1562,-2.1557,-2.1527,-2.1526,-2.1524,-2.1455,-2.1454,-2.1453,-2.1452,-2.137,-2.1368,-2.1366,-2.1375,0,0,-2.1359,-2.1358,0,0,0,0,0,0,0,0,-2.165,-2.1643,-2.157,-2.1565,-2.156,-2.15,-2.1529,-2.1474,-2.1456,-2.1494,-2.1453,-2.1451,-2.1414,-2.1408,-2.1395,-2.1371,-2.1368,-2.1359,-2.1358,-2.1357,-2.1356,0,0,0,0,0,0,0,-2.1654,-2.1646,-2.1576,-2.1569,-2.1563,-2.1545,-2.1536,-2.1518,-2.1461,-2.1491,-2.1485,-2.1477,-2.1411,-2.1397,-2.1393,-2.1367,-2.1359,-2.1357,-2.1356,-2.1355,-2.1345,-2.1346,0,0,0,0,0,0,-2.1665,-2.165,-2.1579,-2.1573,-2.1603,-2.1544,-2.1534,-2.152,-2.1461,-2.1451,-2.1478,-2.1474,-2.1402,-2.1395,-2.1389,-2.1395,-2.1357,-2.1354,-2.1353,-2.1344,-2.1345,-2.1346,0,0,0,0,0,0,-2.1667,-2.1659,-2.1582,-2.161,-2.1599,-2.1544,-2.1529,-2.1519,-2.1506,-2.1452,-2.1441,-2.1475,-2.1401,-2.1393,-2.1379,-2.1391,-2.1353,-2.1351,-2.1343,-2.1344,-2.1346,-2.1407,0,0,0,0,0,0,-2.167,-2.166,-2.1663,-2.1611,-2.1598,-2.1573,-2.153,-2.1518,-2.1502,-2.1496,-2.1446,-2.1436,-2.1399,-2.1383,-2.1377,-2.1387,-2.135,-2.1341,-2.1343,-2.1345,-2.1404,-2.1411,-2.1417,0,0,0,0,0,-2.1674,-2.1684,-2.1664,-2.1656,-2.16,-2.1574,-2.1566,-2.1523,-2.1503,-2.1506,-2.1471,-2.1438,-2.1391,-2.1382,-2.1375,-2.1385,-2.134,-2.1343,-2.1345,-2.1401,-2.1409,-2.1417,0,0,0,0,0,0,-2.174,-2.1676,-2.1653,-2.1647,-2.1616,-2.1562,-2.1564,-2.1534,-2.1508,-2.1503,-2.1451,-2.144,-2.1432,-2.1407,-2.1398,-2.139,-2.1361,-2.1363,-2.1406,-2.1414,-2.142,-2.1425,-2.1348,0,0,0,0,0,-2.1754,-2.1738,-2.1683,-2.1683,-2.1669,-2.1619,-2.1606,-2.1575,-2.1541,-2.1528,-2.1492,-2.1461,-2.1438,-2.1425,-2.1402,-2.1401,-2.1388,-2.1404,-2.141,-2.1416,-2.1417,-2.1413,-2.1419,-2.1355,-2.1355,-2.1355,0,0,-2.1782,-2.1745,-2.1738,-2.1695,-2.1668,-2.1652,-2.1609,-2.1594,-2.1581,-2.1526,-2.151,-2.1483,-2.1444,-2.1437,-2.1431,-2.1416,-2.1432,-2.1419,-2.1424,-2.1422,-2.1416,-2.1422,-2.1428,-2.1356,-2.1356,-2.1356,0,0,-2.1825,-2.1796,-2.1792,-2.1766,-2.1725,-2.1692,-2.1691,-2.1641,-2.1621,-2.1605,-2.1562,-2.1547,-2.1511,-2.1484,-2.1466,-2.1499,-2.1468,-2.1494,-2.1526,-2.1523,-2.1528,-2.1532,-2.1543,-2.1547,-2.1495,-2.1495,-2.1495,0,-2.1865,-2.1839,-2.1794,-2.1781,-2.1763,-2.1712,-2.1707,-2.1684,-2.1638,-2.1626,-2.1609,-2.1562,-2.1532,-2.1517,-2.1525,-2.1513,-2.1509,-2.1498,-2.1531,-2.1535,-2.1538,-2.1547,-2.1552,-2.1499,-2.1498,-2.1498,-2.1498,0,-2.189,-2.1873,-2.1874,-2.183,-2.1813,-2.1804,-2.1757,-2.1745,-2.1716,-2.1685,-2.1668,-2.1631,-2.1599,-2.1594,-2.1566,-2.1574,-2.1566,-2.1541,-2.1511,-2.1548,-2.1556,-2.1559,-2.1503,-2.1502,-2.1501,-2.15,0,0,-2.1971,-2.1902,-2.1903,-2.1882,-2.1833,-2.1819,-2.1808,-2.1777,-2.1766,-2.1737,-2.1725,-2.1696,-2.1672,-2.1652,-2.1621,-2.1618,-2.1645,-2.1593,-2.1592,-2.1603,-2.1651,-2.1668,-2.1673,-2.1625,-2.1625,-2.1626,-2.1653,0,-2.2004,-2.1981,-2.194,-2.193,-2.1913,-2.1865,-2.1855,-2.1824,-2.1795,-2.1776,-2.1744,-2.1723,-2.1695,-2.1682,-2.1678,-2.1643,-2.1654,-2.1641,-2.1613,-2.1612,-2.1622,-2.1677,-2.1696,-2.1723,-2.1656,-2.1657,-2.1657,0,-2.204,-2.2012,-2.2001,-2.1952,-2.1944,-2.1936,-2.1903,-2.1886,-2.185,-2.1829,-2.1806,-2.1772,-2.1757,-2.1731,-2.171,-2.1702,-2.1689,-2.167,-2.167,-2.1664,-2.1636,-2.1671,-2.1731,-2.1735,-2.1662,-2.1661,-2.1661,0,-2.2098,-2.2058,-2.2045,-2.2029,-2.1973,-2.1968,-2.1945,-2.1907,-2.1891,-2.1863,-2.1851,-2.1822,-2.1806,-2.1784,-2.1743,-2.1728,-2.1726,-2.1697,-2.1707,-2.1708,-2.1707,-2.1707,-2.1764,-2.1702,-2.1702,-2.1702,-2.1702,0,-2.2138,-2.2133,-2.207,-2.2063,-2.2055,-2.2008,-2.2001,-2.1973,-2.194,-2.1926,-2.1884,-2.1871,-2.1818,-2.1799,-2.1767,-2.1754,-2.1747,-2.1729,-2.172,-2.1732,-2.1734,-2.1721,-2.1717,-2.1703,-2.1703,-2.1702,-2.1702,0,-2.2201,-2.2159,-2.2142,-2.209,-2.2077,-2.2073,-2.2029,-2.2019,-2.1988,-2.197,-2.1963,-2.1914,-2.189,-2.1847,-2.1811,-2.1789,-2.1781,-2.1768,-2.1793,-2.1787,-2.1799,-2.1798,-2.1848,-2.1852,-2.179,-2.179,-2.1791,0,-2.2229,-2.2223,-2.2171,-2.2158,-2.2136,-2.2116,-2.2098,-2.2052,-2.2036,-2.1994,-2.199,-2.1962,-2.1937,-2.19,-2.1861,-2.1833,-2.1817,-2.1837,-2.1812,-2.1824,-2.1815,-2.1815,-2.1814,-2.1841,-2.1842,-2.1843,-2.1844,0,-2.2282,-2.2261,-2.2238,-2.2207,-2.2188,-2.2162,-2.2133,-2.2125,-2.2073,-2.2057,-2.2031,-2.2012,-2.1974,-2.1947,-2.1913,-2.1889,-2.1857,-2.1852,-2.1852,-2.1863,-2.1877,-2.1868,-2.1806,-2.185,-2.185,-2.1849,-2.1849,-2.1849,-2.2326,-2.2318,-2.228,-2.2255,-2.2229,-2.2203,-2.2191,-2.2158,-2.2136,-2.2102,-2.2076,-2.2052,-2.2016,-2.1967,-2.1945,-2.1925,-2.191,-2.1912,-2.1912,-2.1912,-2.1916,-2.1882,-2.1919,-2.1919,-2.1918,-2.1918,-2.1918,0,-2.2375,-2.2348,-2.2326,-2.2287,-2.2268,-2.224,-2.2207,-2.2193,-2.2172,-2.2141,-2.2117,-2.2087,-2.2061,-2.202,-2.199,-2.1982,-2.1967,-2.1975,-2.1974,-2.1969,-2.1931,-2.1933,-2.1988,-2.1988,-2.1988,-2.1988,-2.1988,-2.1988,-2.2398,-2.2383,-2.2358,-2.2329,-2.2302,-2.2278,-2.2262,-2.2237,-2.2212,-2.2181,-2.2158,-2.2132,-2.2096,-2.2063,-2.2037,-2.2026,-2.2016,-2.2029,-2.2013,-2.1978,-2.1972,-2.1966,-2.1967,-2.2028,-2.2028,-2.2052,-2.2052,-2.2052]},{"header":{"parameterUnit":"m.s-1","parameterCategory":1,"la1":30.2991,"la2":30.254,"lo1":-89.0895,"lo2":-89.0444,"dy":0.0017,"dx":0.0017,"nx":28,"ny":28,"refTime":"2025-12-27T09:00:00:Z","depth":0,"parameterNumber":3,"parameterNumberName":"V-component_of_WINDS"},"data":[0,0,0,0,0,0,0,0,0,0,0,0,0,0,0,0,0,0,0,0,0,0,0,0,0,0,0,0,0,0,0,0,0,0,0,0,0,0,0,0,0,0,0,0,0,0,0,0,0,0,0,0,0,0,0,0,0,0,1.9678,1.9678,0,1.9709,1.971,1.971,1.9702,1.9702,1.9701,1.97,1.9733,1.9734,1.9735,0,0,0,0,0,0,0,0,0,0,0,0,0,1.9613,1.9614,1.9678,1.9678,1.9678,1.9709,1.971,1.971,1.9702,1.9702,1.9701,1.97,1.9732,1.9734,1.9735,0,0,0,0,0,0,0,0,0,0,0,0,0,1.9642,1.9614,1.9678,1.9678,1.9679,1.9709,1.971,1.971,1.9703,1.9702,1.9701,1.97,1.9732,1.9734,1.9736,1.9767,0,0,1.9742,1.9743,0,0,0,0,0,0,0,0,1.9641,1.9645,1.9678,1.9678,1.9679,1.9701,1.9698,1.9729,1.9703,1.9693,1.97,1.9699,1.9723,1.9726,1.9733,1.9769,1.977,1.9742,1.9744,1.9745,1.9745,0,0,0,0,0,0,0,1.9638,1.9643,1.969,1.9678,1.9679,1.9678,1.9681,1.9704,1.9713,1.9694,1.9694,1.9698,1.9723,1.9731,1.9734,1.9771,1.9742,1.9744,1.9746,1.9746,1.9837,1.9838,0,0,0,0,0,0,1.9636,1.9642,1.9689,1.9691,1.9657,1.968,1.9683,1.9695,1.9713,1.9714,1.9698,1.9697,1.9728,1.9732,1.9735,1.9776,1.9745,1.9747,1.9748,1.9836,1.9837,1.9839,0,0,0,0,0,0,1.9635,1.964,1.9688,1.9666,1.9672,1.9682,1.9695,1.9696,1.9704,1.9716,1.9717,1.9705,1.9728,1.9732,1.976,1.9777,1.9748,1.975,1.9835,1.9836,1.9838,1.9856,0,0,0,0,0,0,1.9633,1.964,1.9651,1.9667,1.9673,1.9712,1.9696,1.9697,1.9708,1.9707,1.9723,1.9725,1.9727,1.9757,1.9762,1.9779,1.9751,1.9833,1.9835,1.9837,1.9854,1.9858,1.9862,0,0,0,0,0,1.963,1.9654,1.9652,1.9657,1.9688,1.9713,1.9717,1.9719,1.9709,1.9722,1.973,1.9724,1.9774,1.976,1.9766,1.9784,1.9832,1.9835,1.9837,1.9852,1.9857,1.9862,0,0,0,0,0,0,1.9639,1.9656,1.9654,1.9683,1.9697,1.9711,1.9726,1.9724,1.974,1.9739,1.9741,1.9745,1.9774,1.9781,1.9765,1.9817,1.9802,1.9806,1.9811,1.9816,1.982,1.9818,1.9753,0,0,0,0,0,1.9645,1.9663,1.9677,1.9702,1.9709,1.9717,1.9727,1.9729,1.9743,1.9748,1.9758,1.9772,1.9792,1.9804,1.9822,1.9855,1.986,1.987,1.9874,1.9877,1.9881,1.9902,1.9908,1.9847,1.9847,1.9847,0,0,1.9656,1.9668,1.9679,1.9704,1.9714,1.9735,1.9721,1.9742,1.9758,1.9751,1.9779,1.9787,1.9803,1.9835,1.9849,1.9842,1.9899,1.988,1.9883,1.9885,1.9906,1.9911,1.9916,1.9849,1.9848,1.9848,0,0,1.9688,1.9697,1.9721,1.9732,1.9749,1.9755,1.976,1.9776,1.9782,1.981,1.9806,1.9825,1.9857,1.987,1.988,1.992,1.9917,1.9926,1.9946,1.9967,1.9972,1.9976,1.9993,1.9999,1.9929,1.9929,1.9929,0,1.97,1.973,1.9733,1.9755,1.9768,1.9764,1.9788,1.9799,1.9821,1.983,1.9821,1.9864,1.9874,1.9911,1.9921,1.9928,1.9937,1.9924,1.9971,1.9975,1.998,1.9996,2.0002,1.993,1.993,1.993,1.993,0,1.9745,1.9767,1.9783,1.9806,1.982,1.9843,1.9851,1.9865,1.9865,1.9872,1.9903,1.9915,1.9937,1.9945,1.9945,1.9983,1.9978,1.997,1.9955,1.9987,2.0002,2.0008,1.9932,1.9932,1.9931,1.9931,0,0,1.9782,1.9809,1.9815,1.9827,1.9846,1.9863,1.9887,1.991,1.9923,1.9939,1.9961,1.9989,1.9983,1.9996,1.9997,2.0015,2.005,2.0006,2.0006,2.0016,2.0095,2.0102,2.0109,2.0047,2.0048,2.0049,2.0095,0,1.9818,1.9861,1.9865,1.9904,1.9926,1.9924,1.9945,1.996,1.9968,1.9988,1.9996,2.0018,2.0006,2.0014,2.0032,2.0042,2.0066,2.0038,2.007,2.0071,2.0068,2.0117,2.0124,2.0166,2.01,2.0101,2.0102,0,1.9864,1.9883,1.9925,1.9945,1.9954,1.9973,1.9996,2.0014,2.0032,2.0037,2.0052,2.0052,2.0079,2.0062,2.0101,2.0082,2.0095,2.0102,2.0104,2.0108,2.0089,2.0125,2.0179,2.0187,2.0111,2.011,2.011,0,1.9891,1.9926,1.9957,1.9966,1.999,2.0004,2.0014,2.0031,2.0046,2.0066,2.0076,2.0098,2.011,2.0128,2.0135,2.0122,2.0175,2.0157,2.0181,2.0181,2.0193,2.0192,2.0252,2.0198,2.0198,2.0197,2.0197,0,1.993,1.9957,1.9969,1.9988,2.0018,2.0024,2.0054,2.0063,2.0079,2.0101,2.01,2.0121,2.0128,2.015,2.0155,2.0188,2.0193,2.0199,2.02,2.02,2.02,2.021,2.0208,2.0199,2.0199,2.0198,2.0198,0,1.9965,1.9974,2.0008,2.0028,2.0034,2.0056,2.0073,2.0093,2.0101,2.0129,2.0135,2.0149,2.0175,2.0184,2.0215,2.0219,2.0258,2.0255,2.0252,2.0253,2.0277,2.0275,2.0347,2.0358,2.0294,2.0295,2.0295,0,1.9991,2.0011,2.0035,2.005,2.0061,2.0085,2.01,2.0107,2.0123,2.0147,2.0164,2.0191,2.0212,2.0255,2.0268,2.0293,2.0292,2.0316,2.0296,2.0297,2.0296,2.0296,2.0299,2.032,2.0321,2.0321,2.0322,0,2.0036,2.0041,2.0063,2.0088,2.0107,2.0126,2.0145,2.0158,2.0168,2.0186,2.0214,2.0231,2.0265,2.0292,2.0318,2.033,2.0329,2.0328,2.0335,2.0336,2.0334,2.0339,2.0265,2.0326,2.0326,2.0325,2.0325,2.0325,2.0069,2.0088,2.0109,2.0135,2.015,2.0169,2.0189,2.0201,2.0224,2.0253,2.0255,2.0286,2.0307,2.0342,2.0355,2.038,2.0373,2.0383,2.0386,2.0389,2.0392,2.0329,2.0384,2.0384,2.0384,2.0384,2.0384,0,2.0117,2.0131,2.0154,2.0182,2.0203,2.0201,2.0222,2.0241,2.0268,2.0287,2.0309,2.0343,2.037,2.0386,2.0414,2.0431,2.0431,2.0438,2.0438,2.0442,2.0395,2.0387,2.0438,2.0438,2.0438,2.0438,2.0438,2.0438,2.0144,2.0178,2.0186,2.0228,2.0242,2.0273,2.0286,2.0304,2.032,2.0358,2.0381,2.0392,2.041,2.044,2.0466,2.047,2.0481,2.0489,2.0493,2.045,2.0444,2.0439,2.0432,2.0491,2.0491,2.0538,2.0538,2.0539]}]]